Location: Cruquius
(52.3348°N, 4.6319°E)
Time: 13:57:43
(UTC+00:00)

Cosmos 962 Rocket - Pass Details

Date: 12 May 2021
Orbit: 950 x 1000 km, 82.9° (Epoch: 19 June)

Event Time Altitude Azimuth Distance (km) Brightness Sun altitude
Rises 21:35:29 0° 350° (N) 3,643 8.9 -14.5°
Reaches altitude 10° 21:38:01 10° 353° (N) 2,690 7.9 -14.7°
Maximum altitude 21:44:09 71° 77° (ENE) 1,005 4.5 -15.1°
Enters shadow 21:48:10 23° 158° (SSE) 1,922 5.4 -15.4°
